Location: 22
(39.7117°N, 89.5929°W)
Time: 00:52:38
(UTC-05:00)

A-11 Canister half - Pass Details

Date: 12 June 2023
Orbit: 1524 x 1684 km, 47.3° (Epoch: 29 September)

Event Time Altitude Azimuth Distance (km) Brightness Sun altitude
Rises 01:23:16 0° 298° (WNW) 4,684 11.8 -26.9°
Reaches altitude 10° 01:26:16 10° 298° (WNW) 3,709 11.2 -26.8°
Maximum altitude 01:35:41 88° 212° (SSW) 1,566 8.9 -26.5°
Drops below altitude 10° 01:45:22 10° 123° (ESE) 3,808 10.9 -26.2°
Sets 01:48:29 0° 123° (ESE) 4,814 11.4 -26.1°
